Flag for U.S.A. Weather past 2 weeks in Springfield, Massachusetts, U.S.A.

Now
6 °F

Clear.


Feels Like: -3 °F
Forecast: -2 / 28 °F
Wind: 5 mph from North

Location: Barnes Municipal Airport

Current Time: Jan 29, 2015 at 2:00:24 AM

Latest Report: Jan 29, 2015 at 12:53 AM


Visibility: 10 mi

Pressure: 30.29 "Hg

Humidity: 73%

Dew point: -1 °F

Location of SpringfieldLocation

Historic Weather in Springfield — Graph

°F

Springfield temperature yesterday

Maximum temperature yesterday: 27 °F (at 2:53 PM)
Minimum temperature yesterday: 7 °F (at 11:53 PM)
Average temperature yesterday: 18 °F

Past Weeks' High & Low Weather Summary

 TemperatureHumidityPressure
High40 °F (Jan 19, 1:53 AM)93% (Jan 18, 9:01 PM)30.65 "Hg (Jan 18, 9:01 PM)
Low2 °F (Jan 14, 3:53 AM)25% (Jan 17, 12:53 PM)29.24 "Hg (Jan 24, 5:03 PM)
Average23 °F62%29.99 "Hg
* Reported Jan 14 12:53 AM — Jan 29 12:53 AM, Springfield, Weather by CustomWeather, © 2014

Note: Actual official high and low records may vary slightly from our data, if they occured in-between our weather recording intervals... More about our weather records

Advertising

Springfield weather history for previous 24 hours

 ConditionsComfort  
Time TempWeatherWind HumidityBarometerVisibility
12:53 AM
Jan 29
6 °FClear.5 mph73%30.29 "Hg10 mi
11:53 PM
Jan 28
7 °FClear.No wind70%30.29 "Hg10 mi
10:53 PM11 °FClear.5 mph61%30.27 "Hg10 mi
9:53 PM18 °FClear.10 mph47%30.24 "Hg10 mi
8:53 PM20 °FClear.10 mph43%30.22 "Hg10 mi
7:53 PM21 °FClear.13 mph41%30.22 "Hg10 mi
6:53 PM22 °FClear.12 mph42%30.19 "Hg10 mi
5:53 PM23 °FClear.14 mph40%30.16 "Hg10 mi
4:53 PM25 °FSunny.15 mph40%30.12 "Hg10 mi
3:53 PM26 °FSunny.18 mph44%30.08 "Hg10 mi
2:53 PM27 °FSunny.14 mph45%30.05 "Hg10 mi
1:53 PM24 °FSunny.7 mph50%30.04 "Hg5 mi
12:53 PM23 °FSunny.13 mph50%30.03 "Hg10 mi
11:53 AM20 °FSunny.13 mph52%30.03 "Hg10 mi
10:53 AM20 °FSunny.12 mph52%30.02 "Hg10 mi
9:53 AM19 °FSunny.14 mph52%30.01 "Hg10 mi
8:53 AM17 °FSunny.10 mph51%30.01 "Hg10 mi
7:53 AM13 °FPassing clouds.9 mph56%29.99 "Hg10 mi
6:56 AM12 °FClear.12 mph58%29.93 "Hg10 mi
5:53 AM12 °FPassing clouds.13 mph58%29.92 "Hg10 mi
4:53 AM13 °FPassing clouds.9 mph56%29.88 "Hg10 mi
3:53 AM13 °FPassing clouds.10 mph59%29.86 "Hg10 mi
2:53 AM14 °FPassing clouds.9 mph56%29.83 "Hg10 mi
Weather by CustomWeather, © 2014

See weather overviewHow to use our weather pages